{"data":{"norad_id":43707,"intl_designator":"2018-093B","name":"BEIDOU-3 M18 (C37)","alt_names":[],"object_type":"PAYLOAD","status":"ACTIVE","operator":null,"country":"PRC","launch_date":"2018-11-18","launch_site_code":"XICLF","launch_vehicle":null,"mission":null,"orbit_class":"UNKNOWN","rcs_meters":null,"size_class":null,"mass_kg":null,"dimensions":null,"purposes":["nav"],"wikipedia_slug":null,"has_3d_model":false,"image_url":null,"decayed_at":null,"tle_current":{"epoch":"2026-05-25T02:01:41.047968Z","epoch_age_seconds":78449,"freshness":"FRESH","line1":"1 43707U 18093B   26145.08450287  .00000062  00000+0  00000+0 0  9990","line2":"2 43707  54.1682 183.0719 0007646 321.1241  38.8899  1.86226506 51103","mean_motion":1.86226506,"eccentricity":0.0007646,"inclination_deg":54.1682,"raan_deg":183.0719,"arg_perigee_deg":321.1241,"mean_anomaly_deg":38.8899,"bstar":0,"rev_number":5110,"period_min":773.25190217552,"perigee_km":21507.163099994,"apogee_km":21549.837930082,"semimajor_km":27906.637515038,"source":"CELESTRAK","updated_at":"2026-05-25T13:38:24.221149Z"}}}